DW3795 Weather Reports


Display with metric or nautical units.
time (UTC)temp
F
wind
direction
speed
MPH
gust
MPH
rain 1hr
in
rain 24hr
in
rain mn
in
humidity
%
barometer
mb
20260831101520 68 193 0.0 0.0 0.00 0.00 0.00 95 1019.4
20260831100018 68 193 0.0 0.0 0.00 0.00 0.00 94 1019.3
20260831094522 68 193 0.0 0.0 0.00 0.00 0.00 94 1019.5
20260831093017 68 193 0.0 0.0 0.00 0.00 0.00 94 1019.3
20260831091517 68 193 0.0 0.0 0.00 0.00 0.00 94 1019.3
20260831090016 68 193 0.0 0.0 0.00 0.00 0.00 94 1019.3
20260831084525 69 193 0.0 0.0 0.00 0.00 0.00 94 1019.3
20260831083012 69 193 0.0 0.0 0.00 0.00 0.00 94 1019.3
20260831081520 69 193 0.0 0.0 0.00 0.00 0.00 94 1019.4
20260831080009 69 193 0.0 0.0 0.00 0.00 0.00 94 1019.4
20260831074529 69 193 0.0 0.0 0.00 0.00 0.00 93 1019.3
20260831073011 69 193 0.0 0.0 0.00 0.00 0.00 93 1019.3
20260831071505 70 193 0.0 0.0 0.00 0.00 0.00 93 1019.2
20260831070007 70 193 0.0 0.0 0.00 0.00 0.00 93 1019.3
20260831064509 70 193 0.0 0.0 0.00 0.00 0.00 93 1019.2
20260831063006 70 193 0.0 0.0 0.00 0.00 0.00 93 1019.4
20260831061602 70 193 0.0 0.0 0.00 0.00 0.00 92 1019.4
20260831060113 70 193 0.0 0.0 0.00 0.00 0.00 92 1019.5
20260831054600 71 193 0.0 0.0 0.00 0.00 0.00 92 1019.6
20260831053057 71 193 0.0 0.0 0.00 0.00 0.00 92 1019.5
20260831051555 71 193 0.0 0.0 0.00 0.00 0.00 92 1019.6
20260831050122 71 193 0.0 0.0 0.00 0.00 0.00 91 1019.6
20260831044552 72 193 0.0 0.0 0.00 0.00 0.00 91 1019.7
20260831043051 72 193 0.0 0.0 0.00 0.00 0.00 91 1019.7
20260831041549 72 193 0.0 0.0 0.00 0.00 0.00 90 1019.9
20260831040051 73 193 0.0 0.0 0.00 0.00 0.00 90 1020.0
20260831034543 73 193 0.0 0.0 0.00 0.00 0.00 89 1019.8
20260831033043 73 193 0.0 0.0 0.00 0.00 0.00 88 1019.9
20260831031541 74 193 0.0 0.0 0.00 0.00 0.00 88 1020.0
20260831030050 74 193 0.0 0.0 0.00 0.00 0.00 87 1020.3
20260831024541 75 193 0.0 0.0 0.00 0.00 0.00 86 1020.3
20260831023041 75 193 0.0 0.0 0.00 0.00 0.00 86 1020.3
20260831021540 76 193 0.0 0.0 0.00 0.00 0.00 85 1020.0
20260831020039 77 193 0.0 0.0 0.00 0.00 0.00 83 1019.9
20260831014546 77 193 0.0 0.0 0.00 0.00 0.00 82 1019.9
20260831013039 78 185 0.0 1.0 0.00 0.00 0.00 80 1019.9
20260831011540 79 185 0.0 3.0 0.00 0.00 0.00 79 1019.8
20260831010139 79 138 2.0 4.0 0.00 0.00 0.00 78 1019.7
20260831004537 80 178 1.0 4.0 0.00 0.00 0.00 76 1019.5
20260831001536 82 228 0.0 0.0 0.00 0.00 0.00 73 1019.2
20260831000048 83 216 0.0 0.0 0.00 0.00 0.00 71 1019.1
20260830234533 84 218 0.0 0.0 0.00 0.00 0.00 69 1018.9
20260830233052 85 170 0.0 2.0 0.00 0.00 0.00 68 1019.0
20260830231533 85 192 1.0 4.0 0.00 0.00 0.00 66 1019.0
20260830230032 86 204 0.0 5.0 0.00 0.00 0.00 66 1019.0
20260830224532 86 196 1.0 6.0 0.00 0.00 0.00 64 1019.0
20260830223032 87 254 1.0 7.0 0.00 0.00 0.00 65 1018.9
20260830221530 87 196 2.0 10.0 0.00 0.00 0.00 63 1018.8
20260830220052 88 181 4.0 7.0 0.00 0.00 0.00 63 1018.8
20260830214528 88 112 3.0 8.0 0.00 0.00 0.00 62 1018.7
20260830213030 89 157 0.0 3.0 0.00 0.00 0.00 63 1018.7
20260830211530 91 105 1.0 4.0 0.00 0.00 0.00 59 1018.7
20260830210027 94 120 0.0 2.0 0.00 0.00 0.00 55 1018.9
20260830204528 95 96 1.0 3.0 0.00 0.00 0.00 53 1018.9
20260830203022 94 160 1.0 3.0 0.00 0.00 0.00 52 1019.1
20260830201520 93 203 2.0 5.0 0.00 0.00 0.00 55 1019.1
20260830200032 94 354 1.0 4.0 0.00 0.00 0.00 52 1019.3
20260830194516 94 177 3.0 6.0 0.00 0.00 0.00 55 1019.4
20260830193013 93 163 0.0 3.0 0.00 0.00 0.00 55 1019.6
20260830191542 92 264 0.0 4.0 0.00 0.00 0.00 57 1019.6
20260830190009 92 196 4.0 6.0 0.00 0.00 0.00 57 1020.1
20260830184506 90 5 0.0 0.0 0.00 0.00 0.00 60 1020.5
20260830183004 90 336 0.0 0.0 0.00 0.00 0.00 60 1020.8
20260830181601 90 312 0.0 3.0 0.00 0.00 0.00 61 1021.0
20260830180058 90 183 2.0 6.0 0.00 0.00 0.00 61 1021.3
20260830174559 90 71 1.0 4.0 0.00 0.00 0.00 61 1021.5
20260830173054 89 340 1.0 5.0 0.00 0.00 0.00 64 1021.6
20260830171552 89 360 1.0 3.0 0.00 0.00 0.00 64 1021.8
20260830170048 88 198 1.0 4.0 0.00 0.00 0.00 64 1022.0
20260830164544 85 177 0.0 3.0 0.00 0.00 0.00 68 1022.1
20260830163044 84 354 0.0 4.0 0.00 0.00 0.00 70 1022.3
20260830161543 85 328 2.0 5.0 0.00 0.00 0.00 71 1022.4
20260830160042 84 248 1.0 5.0 0.00 0.00 0.00 73 1022.6
20260830154536 83 144 0.0 3.0 0.00 0.00 0.00 75 1022.8
20260830153033 82 196 1.0 6.0 0.00 0.00 0.00 76 1022.9
20260830151525 78 128 0.0 0.0 0.00 0.00 0.00 84 1022.9
20260830150025 75 276 0.0 0.0 0.00 0.00 0.00 89 1023.0
20260830144524 74 277 0.0 0.0 0.00 0.00 0.00 92 1023.1
20260830143014 74 273 0.0 0.0 0.00 0.00 0.00 94 1023.3
20260830141515 73 273 0.0 0.0 0.00 0.00 0.00 95 1023.6
20260830140008 73 337 0.0 0.0 0.00 0.00 0.00 97 1023.7
20260830134505 72 117 0.0 0.0 0.00 0.00 0.00 96 1023.7
20260830133001 71 117 0.0 0.0 0.00 0.00 0.00 96 1023.7
20260830131600 71 102 0.0 0.0 0.00 0.00 0.00 97 1023.7
20260830131501 71 102 0.0 0.0 0.00 0.00 0.00 97 1023.7
20260830130115 71 92 0.0 0.0 0.00 0.00 0.00 97 1023.6
20260830124602 70 170 0.0 0.0 0.00 0.00 0.00 96 1023.7
20260830123101 70 171 0.0 0.0 0.00 0.00 0.00 96 1023.6
20260830121552 69 171 0.0 0.0 0.00 0.00 0.00 96 1023.6
20260830114551 69 171 0.0 0.0 0.00 0.00 0.00 96 1023.3
20260830113045 69 171 0.0 0.0 0.00 0.00 0.00 96 1023.0
20260830111543 68 171 0.0 0.0 0.00 0.00 0.00 96 1022.9
20260830110042 68 171 0.0 0.0 0.00 0.00 0.00 96 1022.8
20260830104539 68 171 0.0 0.0 0.00 0.00 0.00 95 1022.6
20260830103039 67 171 0.0 0.0 0.00 0.00 0.00 95 1022.6